ICT,Max TemperatureF,Mean TemperatureF,Min TemperatureF,Max Dew PointF,MeanDew PointF,Min DewpointF,Max Humidity, Mean Humidity, Min Humidity, Max Sea Level PressureIn, Mean Sea Level PressureIn, Min Sea Level PressureIn, Max VisibilityMiles, Mean VisibilityMiles, Min VisibilityMiles, Max Wind SpeedMPH, Mean Wind SpeedMPH, Max Gust SpeedMPH,PrecipitationIn, CloudCover, Events, WindDirDegrees
2012-9-1,89,84,80,75,74,73,84,73,59,29.74,29.70,29.62,6,6,6,20,6,,0.00,5,Rain,253
2012-9-2,86,82,77,77,75,72,89,80,62,29.74,29.68,29.62,6,6,5,10,4,,0.00,5,Rain,250
2012-9-3,87,82,77,75,74,73,94,80,62,29.74,29.70,29.62,6,6,3,17,7,,0.00,5,Rain-Thunderstorm,270
2012-9-4,86,82,77,75,75,73,94,84,70,29.77,29.72,29.65,6,6,4,10,6,,0.00,4,Rain-Thunderstorm,304
2012-9-5,84,80,77,77,76,73,94,85,74,29.77,29.68,29.59,6,6,4,14,7,26,0.00,5,Rain-Thunderstorm,305
2012-9-6,86,82,77,77,76,75,94,83,70,29.77,29.68,29.62,6,5,0,12,6,,0.00,5,Rain-Thunderstorm,130
2012-9-7,86,82,78,77,76,73,89,80,66,29.83,29.77,29.71,6,6,6,9,7,,0.00,5,,166
2012-9-8,89,82,75,79,74,73,84,68,59,29.86,29.80,29.74,6,6,6,7,3,,0.00,3,,217
2012-9-9,89,84,80,77,75,73,84,70,59,29.86,29.79,29.71,6,6,6,10,5,,0.00,3,,333
2012-9-10,89,84,80,79,76,73,89,75,62,29.83,29.75,29.68,6,6,6,8,4,,0.00,2,,310
2012-9-11,89,83,77,75,74,72,94,73,55,29.83,29.76,29.65,6,6,5,10,6,,0.00,4,Rain,285
2012-9-12,89,84,78,77,75,72,89,81,66,29.83,29.77,29.68,6,5,4,14,5,,0.00,6,Rain-Thunderstorm,288
2012-9-13,87,82,77,77,76,73,94,85,70,29.80,29.74,29.65,6,6,2,9,4,,0.00,6,Rain-Thunderstorm,245
2012-9-14,87,82,78,77,76,73,89,77,66,29.74,29.68,29.59,6,6,6,10,4,,0.00,3,Rain-Thunderstorm,346
2012-9-15,87,82,77,75,75,73,94,79,66,29.77,29.70,29.62,6,6,4,9,5,,0.00,5,Rain,81
2012-9-16,86,81,76,77,76,75,94,86,70,29.83,29.75,29.68,6,5,0,13,3,,0.00,6,Rain-Thunderstorm,126
2012-9-17,84,80,77,77,75,73,94,86,79,29.83,29.77,29.71,6,5,2,12,7,,0.00,5,Rain,259
2012-9-18,84,80,76,77,75,75,94,86,74,29.80,29.74,29.68,6,6,4,10,5,,0.00,5,Rain,202
2012-9-19,84,81,78,77,76,73,94,86,74,29.80,29.74,29.68,6,5,2,10,5,,0.00,5,Rain,245
2012-9-20,89,83,77,77,76,75,89,76,62,29.83,29.75,29.68,6,6,6,9,5,,0.00,4,Rain-Thunderstorm,173
2012-9-21,87,82,78,79,76,73,94,79,66,29.80,29.75,29.68,6,6,6,10,4,,0.00,3,,221
2012-9-22,86,83,80,77,76,75,84,78,70,29.80,29.74,29.65,6,6,6,8,4,,0.00,3,,213
2012-9-23,89,84,78,77,76,73,89,74,62,29.77,29.70,29.62,6,6,4,10,4,,0.00,4,Rain-Thunderstorm,255
2012-9-24,89,84,78,79,76,73,94,73,59,29.74,29.65,29.56,6,6,3,12,4,,0.00,3,Fog-Thunderstorm,283
2012-9-25,87,82,78,79,76,75,89,79,66,29.77,29.70,29.62,6,6,6,8,2,,0.00,4,Rain,266
2012-9-26,91,83,75,77,75,72,94,73,55,29.80,29.73,29.65,6,6,1,13,3,,0.00,3,Rain-Thunderstorm,69
2012-9-27,87,82,78,77,77,75,94,83,70,29.80,29.74,29.65,6,6,4,12,2,,0.00,5,Rain,323
2012-9-28,84,80,77,77,76,73,94,84,70,29.80,29.75,29.68,6,6,4,7,3,,0.00,5,Rain,317
2012-9-29,87,81,75,77,75,73,94,81,62,29.86,29.79,29.71,6,6,2,13,3,,0.00,5,Rain-Thunderstorm,56
2012-9-30,86,82,78,77,75,72,89,81,66,29.86,29.80,29.74,6,6,6,9,3,,0.00,5,Rain,97